Time,TemperatureF,DewpointF,PressureIn,WindDirection,WindDirectionDegrees,WindSpeedMPH,WindSpeedGustMPH,Humidity,HourlyPrecipIn,Conditions,Clouds,dailyrainin,SoftwareType,DateUTC
2013-01-25 00:02:00,21.0,10.0,-100.00,SE,125,8.0,16.0,63,0.00,,,-99.99,,2013-01-25 06:02:00,
2013-01-25 00:11:00,21.0,10.0,-100.00,SE,125,9.0,14.0,63,0.00,,,-99.99,,2013-01-25 06:11:00,
2013-01-25 00:21:00,21.0,10.0,-100.00,SE,125,8.0,14.0,63,0.00,,,-99.99,,2013-01-25 06:21:00,
2013-01-25 00:32:00,21.0,10.0,-100.00,ESE,115,7.0,12.0,63,0.00,,,-99.99,,2013-01-25 06:32:00,
2013-01-25 00:42:00,21.0,10.0,-100.00,SE,135,8.0,14.0,63,0.00,,,-99.99,,2013-01-25 06:42:00,
2013-01-25 00:52:00,21.0,10.0,-100.00,SE,125,9.0,14.0,63,0.00,,,-99.99,,2013-01-25 06:52:00,
2013-01-25 01:02:00,21.0,10.0,-100.00,SE,135,11.0,14.0,63,0.00,,,-99.99,,2013-01-25 07:02:00,
2013-01-25 01:11:00,21.0,10.0,-100.00,SE,135,7.0,12.0,63,0.00,,,-99.99,,2013-01-25 07:11:00,
2013-01-25 01:21:00,21.0,10.0,-100.00,SE,130,6.0,13.0,63,0.00,,,-99.99,,2013-01-25 07:21:00,
2013-01-25 01:32:00,21.0,10.0,-100.00,SE,125,7.0,13.0,63,0.00,,,-99.99,,2013-01-25 07:32:00,
2013-01-25 01:42:00,21.0,10.0,-100.00,SE,140,7.0,13.0,63,0.00,,,-99.99,,2013-01-25 07:42:00,
2013-01-25 01:51:00,21.0,10.0,-100.00,SE,130,7.0,11.0,63,0.00,,,-99.99,,2013-01-25 07:51:00,
2013-01-25 02:01:00,21.0,10.0,-100.00,SE,140,9.0,12.0,63,0.00,,,-99.99,,2013-01-25 08:01:00,
2013-01-25 02:11:00,21.0,11.0,-100.00,SE,135,9.0,12.0,63,0.00,,,-99.99,,2013-01-25 08:11:00,
2013-01-25 02:21:00,21.0,10.0,-100.00,SE,145,7.0,12.0,63,0.00,,,-99.99,,2013-01-25 08:21:00,
2013-01-25 02:32:00,21.0,10.0,-100.00,SE,130,7.0,11.0,63,0.00,,,-99.99,,2013-01-25 08:32:00,
2013-01-25 02:41:00,21.0,11.0,-100.00,SE,145,9.0,13.0,63,0.00,,,-99.99,,2013-01-25 08:41:00,
2013-01-25 02:52:00,21.0,11.0,-100.00,SE,145,6.0,13.0,64,0.00,,,-99.99,,2013-01-25 08:52:00,
2013-01-25 03:01:00,21.0,11.0,-100.00,SE,145,6.0,13.0,64,0.00,,,-99.99,,2013-01-25 09:01:00,
2013-01-25 03:11:00,21.0,11.0,-100.00,SSE,160,7.0,16.0,65,0.00,,,-99.99,,2013-01-25 09:11:00,
2013-01-25 03:21:00,21.0,12.0,-100.00,SE,145,5.0,12.0,67,0.00,,,-99.99,,2013-01-25 09:21:00,
2013-01-25 03:31:00,20.0,12.0,-100.00,SE,145,8.0,11.0,68,0.00,,,-99.99,,2013-01-25 09:31:00,
2013-01-25 03:41:00,20.0,12.0,-100.00,SE,130,7.0,12.0,69,0.00,,,-99.99,,2013-01-25 09:41:00,
2013-01-25 03:51:00,20.0,12.0,-100.00,SE,140,5.0,9.0,69,0.00,,,-99.99,,2013-01-25 09:51:00,
2013-01-25 04:02:00,20.0,12.0,-100.00,SE,125,5.0,9.0,69,0.00,,,-99.99,,2013-01-25 10:02:00,
2013-01-25 04:12:00,20.0,12.0,-100.00,SE,125,4.0,7.0,69,0.00,,,-99.99,,2013-01-25 10:12:00,
2013-01-25 04:21:00,20.0,12.0,-100.00,SE,145,4.0,9.0,69,0.00,,,-99.99,,2013-01-25 10:21:00,
2013-01-25 04:32:00,21.0,12.0,-100.00,South,175,10.0,14.0,69,0.00,,,-99.99,,2013-01-25 10:32:00,
2013-01-25 04:42:00,21.0,13.0,-100.00,SSW,195,9.0,14.0,70,0.00,,,-99.99,,2013-01-25 10:42:00,
2013-01-25 04:51:00,20.0,14.0,-100.00,South,185,6.0,11.0,76,0.00,,,-99.99,,2013-01-25 10:51:00,
2013-01-25 05:02:00,20.0,14.0,-100.00,South,185,7.0,11.0,77,0.00,,,-99.99,,2013-01-25 11:02:00,
2013-01-25 05:11:00,20.0,14.0,-100.00,South,185,6.0,9.0,79,0.00,,,-99.99,,2013-01-25 11:11:00,
2013-01-25 05:22:00,20.0,15.0,-100.00,South,190,7.0,9.0,81,0.00,,,-99.99,,2013-01-25 11:22:00,
2013-01-25 05:32:00,19.0,16.0,-100.00,South,180,4.0,9.0,84,0.00,,,-99.99,,2013-01-25 11:32:00,
2013-01-25 05:42:00,19.0,16.0,-100.00,South,180,4.0,9.0,84,0.00,,,-99.99,,2013-01-25 11:42:00,
2013-01-25 05:52:00,19.0,16.0,-100.00,South,170,6.0,8.0,88,0.00,,,-99.99,,2013-01-25 11:52:00,
2013-01-25 06:02:00,19.0,16.0,-100.00,South,170,6.0,8.0,88,0.00,,,-99.99,,2013-01-25 12:02:00,
2013-01-25 06:11:00,19.0,17.0,-100.00,SSE,165,6.0,7.0,89,0.00,,,-99.99,,2013-01-25 12:11:00,
2013-01-25 06:22:00,19.0,17.0,-100.00,South,185,4.0,7.0,90,0.00,,,-99.99,,2013-01-25 12:22:00,
2013-01-25 06:32:00,19.0,17.0,-100.00,South,180,4.0,6.0,91,0.00,,,-99.99,,2013-01-25 12:32:00,
2013-01-25 06:42:00,19.0,17.0,-100.00,South,180,4.0,6.0,91,0.00,,,-99.99,,2013-01-25 12:42:00,
2013-01-25 06:52:00,19.0,17.0,-100.00,South,185,4.0,6.0,91,0.00,,,-99.99,,2013-01-25 12:52:00,
2013-01-25 07:02:00,19.0,17.0,-100.00,South,185,4.0,6.0,91,0.00,,,-99.99,,2013-01-25 13:02:00,
2013-01-25 07:11:00,19.0,17.0,-100.00,South,180,6.0,7.0,92,0.00,,,-99.99,,2013-01-25 13:11:00,
2013-01-25 07:22:00,19.0,17.0,-100.00,South,180,6.0,7.0,92,0.00,,,-99.99,,2013-01-25 13:22:00,
2013-01-25 07:32:00,19.0,17.0,-100.00,South,180,7.0,9.0,92,0.00,,,-99.99,,2013-01-25 13:32:00,
2013-01-25 07:42:00,19.0,18.0,-100.00,South,180,7.0,9.0,92,0.00,,,-99.99,,2013-01-25 13:42:00,
2013-01-25 07:52:00,20.0,18.0,-100.00,South,180,6.0,9.0,92,0.00,,,-99.99,,2013-01-25 13:52:00,
2013-01-25 08:03:00,20.0,18.0,-100.00,South,180,6.0,9.0,92,0.00,,,-99.99,,2013-01-25 14:03:00,
2013-01-25 08:12:00,20.0,18.0,-100.00,South,185,6.0,9.0,92,0.00,,,-99.99,,2013-01-25 14:12:00,
2013-01-25 08:22:00,20.0,18.0,-100.00,SW,215,6.0,9.0,92,0.00,,,-99.99,,2013-01-25 14:22:00,
2013-01-25 08:32:00,20.0,18.0,-100.00,SW,215,7.0,12.0,91,0.00,,,-99.99,,2013-01-25 14:32:00,
2013-01-25 08:42:00,21.0,19.0,-100.00,SW,230,7.0,10.0,91,0.00,,,-99.99,,2013-01-25 14:42:00,
2013-01-25 08:52:00,21.0,19.0,-100.00,SW,235,9.0,14.0,90,0.00,,,-99.99,,2013-01-25 14:52:00,
2013-01-25 09:02:00,22.0,19.0,-100.00,WSW,240,11.0,14.0,88,0.00,,,-99.99,,2013-01-25 15:02:00,
2013-01-25 09:12:00,22.0,19.0,-100.00,WSW,240,11.0,14.0,88,0.00,,,-99.99,,2013-01-25 15:12:00,
2013-01-25 09:22:00,22.0,19.0,-100.00,WSW,245,12.0,16.0,85,0.00,,,-99.99,,2013-01-25 15:22:00,
2013-01-25 09:32:00,23.0,19.0,-100.00,SW,235,12.0,15.0,83,0.00,,,-99.99,,2013-01-25 15:32:00,
2013-01-25 09:42:00,24.0,19.0,-100.00,WSW,245,11.0,17.0,80,0.00,,,-99.99,,2013-01-25 15:42:00,
2013-01-25 09:52:00,24.0,18.0,-100.00,WSW,250,12.0,19.0,76,0.00,,,-99.99,,2013-01-25 15:52:00,
2013-01-25 10:03:00,25.0,18.0,-100.00,WSW,240,13.0,17.0,72,0.00,,,-99.99,,2013-01-25 16:03:00,
2013-01-25 10:12:00,26.0,17.0,-100.00,WSW,245,11.0,19.0,70,0.00,,,-99.99,,2013-01-25 16:12:00,
2013-01-25 10:22:00,26.0,17.0,-100.00,WSW,255,14.0,17.0,68,0.00,,,-99.99,,2013-01-25 16:22:00,
2013-01-25 10:32:00,26.0,17.0,-100.00,WSW,255,14.0,18.0,66,0.00,,,-99.99,,2013-01-25 16:32:00,
2013-01-25 10:42:00,27.0,17.0,-100.00,WSW,245,14.0,17.0,65,0.00,,,-99.99,,2013-01-25 16:42:00,
2013-01-25 10:52:00,28.0,17.0,-100.00,WSW,245,13.0,20.0,62,0.00,,,-99.99,,2013-01-25 16:52:00,
2013-01-25 11:02:00,28.0,17.0,-100.00,WSW,245,13.0,20.0,62,0.00,,,-99.99,,2013-01-25 17:02:00,
2013-01-25 11:12:00,27.0,16.0,-100.00,West,275,14.0,21.0,61,0.00,,,-99.99,,2013-01-25 17:12:00,
2013-01-25 11:22:00,28.0,16.0,-100.00,WSW,255,14.0,21.0,60,0.00,,,-99.99,,2013-01-25 17:22:00,
2013-01-25 11:32:00,29.0,17.0,-100.00,WSW,245,16.0,21.0,59,0.00,,,-99.99,,2013-01-25 17:32:00,
2013-01-25 11:42:00,29.0,17.0,-100.00,WSW,245,16.0,21.0,59,0.00,,,-99.99,,2013-01-25 17:42:00,
2013-01-25 11:52:00,29.0,17.0,-100.00,WSW,250,16.0,22.0,58,0.00,,,-99.99,,2013-01-25 17:52:00,
2013-01-25 12:03:00,29.0,16.0,-100.00,West,270,16.0,24.0,57,0.00,,,-99.99,,2013-01-25 18:03:00,
2013-01-25 12:12:00,30.0,17.0,-100.00,WSW,245,18.0,22.0,56,0.00,,,-99.99,,2013-01-25 18:12:00,
2013-01-25 12:23:00,31.0,17.0,-100.00,WSW,240,16.0,20.0,56,0.00,,,-99.99,,2013-01-25 18:23:00,
2013-01-25 12:33:00,31.0,17.0,-100.00,WSW,250,13.0,24.0,54,0.00,,,-99.99,,2013-01-25 18:33:00,
2013-01-25 12:42:00,31.0,17.0,-100.00,WSW,250,13.0,24.0,54,0.00,,,-99.99,,2013-01-25 18:42:00,
2013-01-25 12:52:00,32.0,17.0,-100.00,WSW,250,15.0,23.0,54,0.00,,,-99.99,,2013-01-25 18:52:00,
2013-01-25 13:03:00,32.0,17.0,-100.00,WSW,255,16.0,21.0,53,0.00,,,-99.99,,2013-01-25 19:03:00,
2013-01-25 13:12:00,33.0,17.0,-100.00,West,260,16.0,22.0,53,0.00,,,-99.99,,2013-01-25 19:12:00,
2013-01-25 13:22:00,33.0,17.0,-100.00,West,265,14.0,26.0,52,0.00,,,-99.99,,2013-01-25 19:22:00,
2013-01-25 13:32:00,33.0,18.0,-100.00,West,270,19.0,24.0,51,0.00,,,-99.99,,2013-01-25 19:32:00,
2013-01-25 13:42:00,34.0,18.0,-100.00,West,270,18.0,28.0,51,0.00,,,-99.99,,2013-01-25 19:42:00,
2013-01-25 13:52:00,34.0,18.0,-100.00,West,260,18.0,26.0,51,0.00,,,-99.99,,2013-01-25 19:52:00,
2013-01-25 14:02:00,34.0,18.0,-100.00,West,260,18.0,26.0,51,0.00,,,-99.99,,2013-01-25 20:02:00,
2013-01-25 14:12:00,34.0,18.0,-100.00,West,280,21.0,30.0,52,0.00,,,-99.99,,2013-01-25 20:12:00,
2013-01-25 14:22:00,34.0,18.0,-100.00,West,275,21.0,33.0,52,0.00,,,-99.99,,2013-01-25 20:22:00,
2013-01-25 14:32:00,33.0,18.0,-100.00,West,275,21.0,29.0,53,0.00,,,-99.99,,2013-01-25 20:32:00,
2013-01-25 14:42:00,33.0,18.0,-100.00,West,275,21.0,29.0,53,0.00,,,-99.99,,2013-01-25 20:42:00,
2013-01-25 14:52:00,33.0,18.0,-100.00,West,275,19.0,29.0,53,0.00,,,-99.99,,2013-01-25 20:52:00,
2013-01-25 15:02:00,33.0,18.0,-100.00,WNW,290,22.0,29.0,55,0.00,,,-99.99,,2013-01-25 21:02:00,
2013-01-25 15:12:00,33.0,20.0,-100.00,WNW,290,20.0,27.0,58,0.00,,,-99.99,,2013-01-25 21:12:00,
2013-01-25 15:22:00,33.0,21.0,-100.00,WNW,290,20.0,29.0,61,0.00,,,-99.99,,2013-01-25 21:22:00,
2013-01-25 15:32:00,31.0,21.0,-100.00,WNW,295,17.0,30.0,64,0.00,,,-99.99,,2013-01-25 21:32:00,
2013-01-25 15:42:00,31.0,21.0,-100.00,WNW,295,17.0,30.0,64,0.00,,,-99.99,,2013-01-25 21:42:00,
2013-01-25 15:52:00,31.0,20.0,-100.00,WNW,295,17.0,26.0,65,0.00,,,-99.99,,2013-01-25 21:52:00,
2013-01-25 16:02:00,30.0,20.0,-100.00,WNW,295,18.0,24.0,65,0.00,,,-99.99,,2013-01-25 22:02:00,
2013-01-25 16:11:00,30.0,20.0,-100.00,WNW,295,15.0,26.0,66,0.00,,,-99.99,,2013-01-25 22:11:00,
2013-01-25 16:22:00,30.0,20.0,-100.00,WNW,300,17.0,24.0,66,0.00,,,-99.99,,2013-01-25 22:22:00,
2013-01-25 16:32:00,30.0,20.0,-100.00,WNW,300,14.0,24.0,66,0.00,,,-99.99,,2013-01-25 22:32:00,
2013-01-25 16:42:00,30.0,20.0,-100.00,WNW,300,14.0,24.0,66,0.00,,,-99.99,,2013-01-25 22:42:00,
2013-01-25 16:51:00,29.0,20.0,-100.00,WNW,285,12.0,22.0,67,0.00,,,-99.99,,2013-01-25 22:51:00,
2013-01-25 17:02:00,29.0,20.0,-100.00,WNW,285,12.0,22.0,67,0.00,,,-99.99,,2013-01-25 23:02:00,
2013-01-25 17:11:00,29.0,20.0,-100.00,WNW,285,12.0,23.0,68,0.00,,,-99.99,,2013-01-25 23:11:00,
2013-01-25 17:22:00,29.0,20.0,-100.00,WNW,285,12.0,23.0,68,0.00,,,-99.99,,2013-01-25 23:22:00,
2013-01-25 17:32:00,27.0,20.0,-100.00,WNW,290,12.0,16.0,72,0.00,,,-99.99,,2013-01-25 23:32:00,
2013-01-25 17:42:00,27.0,20.0,-100.00,WNW,290,12.0,16.0,72,0.00,,,-99.99,,2013-01-25 23:42:00,
2013-01-25 17:52:00,28.0,20.0,-100.00,WNW,295,14.0,20.0,72,0.00,,,-99.99,,2013-01-25 23:52:00,
2013-01-25 18:02:00,28.0,20.0,-100.00,WNW,285,16.0,24.0,71,0.00,,,-99.99,,2013-01-26 00:02:00,
2013-01-25 18:11:00,27.0,19.0,-100.00,NW,305,15.0,23.0,69,0.00,,,-99.99,,2013-01-26 00:11:00,
2013-01-25 18:22:00,27.0,18.0,-100.00,NW,305,14.0,21.0,68,0.00,,,-99.99,,2013-01-26 00:22:00,
2013-01-25 18:32:00,26.0,16.0,-100.00,NW,305,16.0,24.0,66,0.00,,,-99.99,,2013-01-26 00:32:00,
2013-01-25 18:42:00,25.0,14.0,-100.00,WNW,295,15.0,23.0,63,0.00,,,-99.99,,2013-01-26 00:42:00,
2013-01-25 18:52:00,24.0,13.0,-100.00,WNW,295,12.0,21.0,63,0.00,,,-99.99,,2013-01-26 00:52:00,
2013-01-25 19:01:00,24.0,13.0,-100.00,NW,310,11.0,20.0,62,0.00,,,-99.99,,2013-01-26 01:01:00,
2013-01-25 19:11:00,23.0,12.0,-100.00,WNW,300,11.0,16.0,62,0.00,,,-99.99,,2013-01-26 01:11:00,
2013-01-25 19:22:00,22.0,11.0,-100.00,NW,315,9.0,17.0,62,0.00,,,-99.99,,2013-01-26 01:22:00,
2013-01-25 19:32:00,22.0,11.0,-100.00,NW,320,9.0,17.0,62,0.00,,,-99.99,,2013-01-26 01:32:00,
2013-01-25 19:42:00,21.0,10.0,-100.00,NW,325,7.0,14.0,62,0.00,,,-99.99,,2013-01-26 01:42:00,
2013-01-25 19:52:00,21.0,10.0,-100.00,NW,310,9.0,16.0,62,0.00,,,-99.99,,2013-01-26 01:52:00,
2013-01-25 20:01:00,20.0,10.0,-100.00,NW,305,7.0,15.0,62,0.00,,,-99.99,,2013-01-26 02:01:00,
2013-01-25 20:11:00,20.0,10.0,-100.00,WNW,300,9.0,18.0,62,0.00,,,-99.99,,2013-01-26 02:11:00,
2013-01-25 20:22:00,20.0,9.0,-100.00,NW,325,10.0,18.0,62,0.00,,,-99.99,,2013-01-26 02:22:00,
2013-01-25 20:32:00,19.0,9.0,-100.00,NW,315,9.0,16.0,63,0.00,,,-99.99,,2013-01-26 02:32:00,
2013-01-25 20:42:00,19.0,9.0,-100.00,NW,310,8.0,15.0,63,0.00,,,-99.99,,2013-01-26 02:42:00,
2013-01-25 20:52:00,18.0,8.0,-100.00,NW,325,8.0,11.0,65,0.00,,,-99.99,,2013-01-26 02:52:00,
2013-01-25 21:02:00,18.0,9.0,-100.00,NNW,330,9.0,16.0,66,0.00,,,-99.99,,2013-01-26 03:02:00,
2013-01-25 21:11:00,18.0,9.0,-100.00,NW,315,8.0,17.0,65,0.00,,,-99.99,,2013-01-26 03:11:00,
2013-01-25 21:21:00,18.0,8.0,-100.00,NNW,330,9.0,14.0,66,0.00,,,-99.99,,2013-01-26 03:21:00,
2013-01-25 21:31:00,17.0,8.0,-100.00,NW,320,8.0,14.0,67,0.00,,,-99.99,,2013-01-26 03:31:00,
2013-01-25 21:42:00,17.0,8.0,-100.00,NW,315,6.0,12.0,68,0.00,,,-99.99,,2013-01-26 03:42:00,
2013-01-25 21:51:00,17.0,8.0,-100.00,NNW,335,9.0,12.0,68,0.00,,,-99.99,,2013-01-26 03:51:00,
2013-01-25 22:02:00,17.0,8.0,-100.00,NW,310,7.0,11.0,69,0.00,,,-99.99,,2013-01-26 04:02:00,
2013-01-25 22:12:00,16.0,8.0,-100.00,NW,320,7.0,12.0,69,0.00,,,-99.99,,2013-01-26 04:12:00,
2013-01-25 22:21:00,16.0,8.0,-100.00,NW,320,7.0,11.0,70,0.00,,,-99.99,,2013-01-26 04:21:00,
2013-01-25 22:32:00,15.0,8.0,-100.00,NW,310,6.0,11.0,71,0.00,,,-99.99,,2013-01-26 04:32:00,
2013-01-25 22:42:00,15.0,8.0,-100.00,NW,315,6.0,9.0,72,0.00,,,-99.99,,2013-01-26 04:42:00,
2013-01-25 22:52:00,15.0,8.0,-100.00,NW,310,6.0,11.0,73,0.00,,,-99.99,,2013-01-26 04:52:00,
2013-01-25 23:03:00,15.0,8.0,-100.00,NNW,330,7.0,12.0,73,0.00,,,-99.99,,2013-01-26 05:03:00,
2013-01-25 23:12:00,15.0,8.0,-100.00,NW,320,6.0,13.0,73,0.00,,,-99.99,,2013-01-26 05:12:00,
2013-01-25 23:23:00,15.0,8.0,-100.00,NW,325,7.0,13.0,73,0.00,,,-99.99,,2013-01-26 05:23:00,
2013-01-25 23:33:00,14.0,8.0,-100.00,NW,315,6.0,13.0,74,0.00,,,-99.99,,2013-01-26 05:33:00,
2013-01-25 23:41:00,14.0,8.0,-100.00,NW,315,6.0,12.0,74,0.00,,,-99.99,,2013-01-26 05:41:00,
2013-01-25 23:52:00,14.0,8.0,-100.00,NW,325,6.0,12.0,76,0.00,,,-99.99,,2013-01-26 05:52:00,